Flag for U.S.A. Weather past 2 weeks in Cedar Rapids, Iowa, U.S.A.

Now
47 °F

Overcast.


Feels Like: 41 °F
Forecast: 32 / 60 °F
Wind: 15 mph from Northeast

Location: Cedar Rapids Municipal Airport

Current Time: Apr 25, 2015 at 10:09:47 PM

Latest Report: Apr 25, 2015 at 8:52 PM


Visibility: 10 mi

Pressure: 29.85 "Hg

Humidity: 71%

Dew point: 38 °F

Location of Cedar RapidsLocation

Historic Weather in Cedar Rapids — Graph

°F

Cedar Rapids temperature yesterday

Maximum temperature yesterday: 55 °F (at 11:52 AM)
Minimum temperature yesterday: 39 °F (at 12:52 AM)
Average temperature yesterday: 46 °F

Past Weeks' High & Low Weather Summary

 TemperatureHumidityPressure
High78 °F (Apr 18, 2:52 PM)100% (Apr 11, 5:52 AM)30.30 "Hg (Apr 11, 5:52 AM)
Low24 °F (Apr 23, 3:52 AM)14% (Apr 23, 5:52 PM)29.42 "Hg (Apr 20, 2:52 AM)
Average52 °F60%29.94 "Hg
* Reported Apr 10 8:52 PM — Apr 25 8:52 PM, Cedar Rapids, Weather by CustomWeather, © 2015

Note: Actual official high and low records may vary slightly from our data, if they occured in-between our weather recording intervals... More about our weather records

Advertising

Cedar Rapids weather history for previous 24 hours

 ConditionsComfort  
Time TempWeatherWind HumidityBarometerVisibility
8:52 PM
Sat, Apr 25
47 °FOvercast.15 mph71%29.85 "Hg10 mi
7:52 PM48 °FMostly cloudy.20 mph71%29.83 "Hg10 mi
6:52 PM50 °FOvercast.13 mph74%29.80 "Hg10 mi
5:52 PM50 °FOvercast.17 mph74%29.78 "Hg10 mi
4:52 PM50 °FMore clouds than sun.16 mph77%29.75 "Hg10 mi
3:52 PM50 °FOvercast.16 mph80%29.72 "Hg10 mi
2:52 PM50 °FOvercast.21 mph80%29.69 "Hg10 mi
1:52 PM50 °FOvercast.23 mph83%29.66 "Hg10 mi
12:52 PM48 °FOvercast.23 mph100%29.65 "Hg9 mi
11:54 AM46 °FOvercast.24 mph100%29.62 "Hg8 mi
10:52 AM43 °FLight rain. Fog.20 mph100%29.67 "Hg3 mi
9:52 AM42 °FRain. Fog.12 mph100%29.71 "Hg2 mi
8:52 AM42 °FRain. Fog.18 mph96%29.67 "Hg2 mi
7:52 AM42 °FLight rain. Fog.20 mph96%29.67 "Hg4 mi
6:52 AM42 °FFog.22 mph96%29.68 "Hg6 mi
5:52 AM42 °FMostly cloudy.21 mph92%29.67 "Hg7 mi
4:52 AM42 °FOvercast.23 mph92%29.67 "Hg7 mi
3:52 AM42 °FFog.20 mph96%29.67 "Hg5 mi
2:52 AM42 °FFog.22 mph100%29.69 "Hg4 mi
1:52 AM43 °FOvercast.20 mphN/A29.71 "Hg4 mi
12:52 AM45 °FOvercast.17 mphN/A29.71 "Hg5 mi
11:52 PM
Fri, Apr 24
45 °FPassing clouds.13 mphN/A29.73 "Hg6 mi
10:52 PM45 °FThundershowers. Overcast.16 mphN/A29.73 "Hg8 mi
Weather by CustomWeather, © 2015

See weather overviewHow to use our weather pages